Time,TemperatureF,DewpointF,PressureIn,WindDirection,WindDirectionDegrees,WindSpeedMPH,WindSpeedGustMPH,Humidity,HourlyPrecipIn,Conditions,Clouds,dailyrainin,SoftwareType,DateUTC
2013-04-22 00:02:00,45.5,39.7,29.95,WSW,258,5.8,5.8,80,0.00,RA,FEW,0.00,WeatherDisplay:10.37,2013-04-21 23:02:00,
2013-04-22 00:07:00,45.5,39.7,29.95,WSW,258,3.5,4.3,80,0.00,RA,FEW,0.00,WeatherDisplay:10.37,2013-04-21 23:07:00,
2013-04-22 00:12:00,45.3,39.8,29.95,West,280,3.5,4.0,81,0.00,BKN,FEW,0.00,WeatherDisplay:10.37,2013-04-21 23:12:00,
2013-04-22 00:17:00,45.3,39.8,29.95,WSW,258,8.1,8.1,81,0.00,BKN,FEW,0.00,WeatherDisplay:10.37,2013-04-21 23:17:00,
2013-04-22 00:22:00,45.1,39.7,29.96,WSW,258,5.8,5.8,81,0.00,BKN,FEW,0.00,WeatherDisplay:10.37,2013-04-21 23:22:00,
2013-04-22 00:27:00,45.1,40.0,29.96,WSW,258,6.9,6.9,82,0.00,BKN,FEW,0.00,WeatherDisplay:10.37,2013-04-21 23:27:00,
2013-04-22 00:32:00,45.0,39.8,29.96,West,280,9.2,9.2,82,0.00,BKN,FEW,0.00,WeatherDisplay:10.37,2013-04-21 23:32:00,
2013-04-22 00:37:00,45.0,39.8,29.96,WSW,258,4.6,4.6,82,0.00,BKN,FEW,0.00,WeatherDisplay:10.37,2013-04-21 23:37:00,
2013-04-22 00:42:00,45.0,39.8,29.96,WSW,258,6.9,6.9,82,0.00,BKN,FEW,0.00,WeatherDisplay:10.37,2013-04-21 23:42:00,
2013-04-22 00:47:00,44.8,39.6,29.96,WSW,258,5.8,5.8,82,0.00,BKN,FEW,0.00,WeatherDisplay:10.37,2013-04-21 23:47:00,
2013-04-22 00:52:00,44.8,39.9,29.96,WSW,258,5.8,5.8,83,0.00,BKN,FEW,0.00,WeatherDisplay:10.37,2013-04-21 23:52:00,
2013-04-22 00:57:00,44.8,39.9,29.96,WSW,258,8.1,8.1,83,0.00,BKN,FEW,0.00,WeatherDisplay:10.37,2013-04-21 23:57:00,
2013-04-22 01:02:00,44.8,39.9,29.95,SSE,168,4.7,4.7,83,0.00,SCT,FEW,0.00,WeatherDisplay:10.37,2013-04-22 00:02:00,
2013-04-22 01:07:00,44.8,39.9,29.95,ESE,122,6.9,6.9,83,0.00,SCT,FEW,0.00,WeatherDisplay:10.37,2013-04-22 00:07:00,
2013-04-22 01:12:00,44.8,39.9,29.95,WSW,258,5.6,5.6,83,0.00,SCT,FEW,0.00,WeatherDisplay:10.37,2013-04-22 00:12:00,
2013-04-22 01:17:00,44.8,39.9,29.95,West,280,4.6,4.6,83,0.00,SCT,FEW,0.00,WeatherDisplay:10.37,2013-04-22 00:17:00,
2013-04-22 01:22:00,44.8,40.2,29.94,ESE,122,4.6,4.6,84,0.00,SCT,FEW,0.00,WeatherDisplay:10.37,2013-04-22 00:22:00,
2013-04-22 01:27:00,44.4,39.9,29.94,West,280,5.8,5.8,84,0.00,SCT,FEW,0.00,WeatherDisplay:10.37,2013-04-22 00:27:00,
2013-04-22 01:32:00,44.8,40.2,29.94,West,280,8.1,8.1,84,0.00,SCT,FEW,0.00,WeatherDisplay:10.37,2013-04-22 00:32:00,
2013-04-22 01:37:00,44.8,40.2,29.94,WSW,258,4.6,4.6,84,0.00,SCT,FEW,0.00,WeatherDisplay:10.37,2013-04-22 00:37:00,
2013-04-22 01:43:00,44.8,40.2,29.95,WSW,258,4.6,4.6,84,0.00,SCT,FEW,0.00,WeatherDisplay:10.37,2013-04-22 00:43:00,
2013-04-22 01:48:00,44.8,40.5,29.95,WSW,258,4.6,4.6,85,0.00,SCT,FEW,0.00,WeatherDisplay:10.37,2013-04-22 00:48:00,
2013-04-22 01:53:00,44.6,40.4,29.95,SE,145,5.8,5.8,85,0.00,SCT,FEW,0.00,WeatherDisplay:10.37,2013-04-22 00:53:00,
2013-04-22 01:58:00,44.8,40.5,29.95,WSW,258,3.5,3.5,85,0.00,SCT,FEW,0.00,WeatherDisplay:10.37,2013-04-22 00:58:00,
2013-04-22 02:03:00,44.8,40.5,29.94,WSW,258,4.6,4.6,85,0.00,FEW,,0.00,WeatherDisplay:10.37,2013-04-22 01:03:00,
2013-04-22 02:08:00,44.8,40.5,29.94,WSW,258,4.6,4.6,85,0.00,FEW,,0.00,WeatherDisplay:10.37,2013-04-22 01:08:00,
2013-04-22 02:13:00,45.0,41.0,29.94,West,280,4.6,4.6,86,0.00,FEW,,0.00,WeatherDisplay:10.37,2013-04-22 01:13:00,
2013-04-22 02:18:00,45.1,41.2,29.94,West,280,4.0,4.0,86,0.00,FEW,,0.00,WeatherDisplay:10.37,2013-04-22 01:18:00,
2013-04-22 02:23:00,45.5,41.6,29.94,ESE,122,5.8,5.8,86,0.00,FEW,,0.00,WeatherDisplay:10.37,2013-04-22 01:23:00,
2013-04-22 02:28:00,45.5,41.3,29.94,WSW,258,6.3,6.3,85,0.00,FEW,,0.00,WeatherDisplay:10.37,2013-04-22 01:28:00,
2013-04-22 02:33:00,45.7,41.4,29.94,WSW,258,6.9,6.9,85,0.00,FEW,,0.00,WeatherDisplay:10.37,2013-04-22 01:33:00,
2013-04-22 02:38:00,45.9,41.6,29.94,SE,145,6.9,6.9,85,0.00,FEW,,0.00,WeatherDisplay:10.37,2013-04-22 01:38:00,
2013-04-22 02:43:00,45.7,41.1,29.93,WSW,258,5.8,5.8,84,0.00,FEW,,0.00,WeatherDisplay:10.37,2013-04-22 01:43:00,
2013-04-22 02:48:00,45.9,41.6,29.93,WSW,258,4.6,5.0,85,0.00,FEW,,0.00,WeatherDisplay:10.37,2013-04-22 01:48:00,
2013-04-22 02:53:00,45.9,41.3,29.93,SSE,168,5.8,5.8,84,0.00,FEW,,0.00,WeatherDisplay:10.37,2013-04-22 01:53:00,
2013-04-22 02:58:00,45.9,41.3,29.93,West,280,8.1,8.1,84,0.00,FEW,,0.00,WeatherDisplay:10.37,2013-04-22 01:58:00,
2013-04-22 03:03:00,45.9,41.3,29.91,SE,145,5.8,5.8,84,0.00,BKN,FEW,0.00,WeatherDisplay:10.37,2013-04-22 02:03:00,
2013-04-22 03:08:00,45.9,41.3,29.91,SE,145,5.8,5.8,84,0.00,BKN,FEW,0.00,WeatherDisplay:10.37,2013-04-22 02:08:00,
2013-04-22 03:13:00,46.2,41.7,29.91,NW,325,5.8,5.9,84,0.00,BKN,FEW,0.00,WeatherDisplay:10.37,2013-04-22 02:13:00,
2013-04-22 03:18:00,46.2,41.7,29.91,WSW,258,5.8,5.8,84,0.00,BKN,FEW,0.00,WeatherDisplay:10.37,2013-04-22 02:18:00,
2013-04-22 03:23:00,46.2,41.7,29.90,WSW,258,5.8,5.9,84,0.00,BKN,FEW,0.00,WeatherDisplay:10.37,2013-04-22 02:23:00,
2013-04-22 03:28:00,46.0,41.5,29.90,WSW,258,4.6,5.4,84,0.00,BKN,FEW,0.00,WeatherDisplay:10.37,2013-04-22 02:28:00,
2013-04-22 03:33:00,46.0,41.5,29.90,SE,145,9.2,9.2,84,0.00,BKN,FEW,0.00,WeatherDisplay:10.37,2013-04-22 02:33:00,
2013-04-22 03:38:00,46.2,41.7,29.90,SW,235,8.6,8.6,84,0.00,BKN,FEW,0.00,WeatherDisplay:10.37,2013-04-22 02:38:00,
2013-04-22 03:43:00,46.2,41.7,29.90,WSW,258,6.9,6.9,84,0.00,BKN,FEW,0.00,WeatherDisplay:10.37,2013-04-22 02:43:00,
2013-04-22 03:48:00,46.2,42.0,29.90,ESE,122,5.8,5.8,85,0.00,BKN,FEW,0.00,WeatherDisplay:10.37,2013-04-22 02:48:00,
2013-04-22 03:53:00,46.2,42.0,29.90,West,280,10.4,10.4,85,0.00,BKN,FEW,0.00,WeatherDisplay:10.37,2013-04-22 02:53:00,
2013-04-22 03:58:00,46.2,42.0,29.90,ESE,122,8.5,8.5,85,0.00,BKN,FEW,0.00,WeatherDisplay:10.37,2013-04-22 02:58:00,
2013-04-22 04:03:00,46.0,41.8,29.89,WSW,258,8.1,8.1,85,0.00,BKN,FEW,0.00,WeatherDisplay:10.37,2013-04-22 03:03:00,
2013-04-22 04:08:00,46.2,42.0,29.89,WSW,258,5.8,5.8,85,0.00,BKN,FEW,0.00,WeatherDisplay:10.37,2013-04-22 03:08:00,
2013-04-22 04:13:00,46.0,41.8,29.89,WSW,258,4.7,4.7,85,0.00,BKN,FEW,0.00,WeatherDisplay:10.37,2013-04-22 03:13:00,
2013-04-22 04:18:00,46.0,41.8,29.89,WSW,258,4.6,4.6,85,0.00,BKN,FEW,0.00,WeatherDisplay:10.37,2013-04-22 03:18:00,
2013-04-22 04:23:00,46.2,42.0,29.89,WSW,258,8.1,8.1,85,0.00,BKN,FEW,0.00,WeatherDisplay:10.37,2013-04-22 03:23:00,
2013-04-22 04:28:00,46.2,42.0,29.89,WSW,258,4.6,4.6,85,0.00,BKN,FEW,0.00,WeatherDisplay:10.37,2013-04-22 03:28:00,
2013-04-22 04:33:00,46.2,42.0,29.89,WSW,258,6.9,6.9,85,0.00,BKN,FEW,0.00,WeatherDisplay:10.37,2013-04-22 03:33:00,
2013-04-22 04:38:00,46.2,41.7,29.89,West,280,4.6,4.6,84,0.00,BKN,FEW,0.00,WeatherDisplay:10.37,2013-04-22 03:38:00,
2013-04-22 04:43:00,46.2,41.7,29.89,WNW,302,6.9,6.9,84,0.00,BKN,FEW,0.00,WeatherDisplay:10.37,2013-04-22 03:43:00,
2013-04-22 04:48:00,46.4,41.8,29.89,WSW,258,8.1,8.1,84,0.00,BKN,FEW,0.00,WeatherDisplay:10.37,2013-04-22 03:48:00,
2013-04-22 04:53:00,46.4,41.8,29.89,West,280,3.5,4.1,84,0.00,BKN,FEW,0.00,WeatherDisplay:10.37,2013-04-22 03:53:00,
2013-04-22 04:58:00,46.4,41.8,29.89,WSW,258,4.6,4.6,84,0.00,BKN,FEW,0.00,WeatherDisplay:10.37,2013-04-22 03:58:00,
2013-04-22 05:01:00,46.4,41.8,29.89,SE,145,5.8,5.8,84,0.00,BKN,FEW,0.00,WeatherDisplay:10.37,2013-04-22 04:01:00,
2013-04-22 05:06:00,46.4,42.1,29.89,WNW,302,10.4,10.4,85,0.00,BKN,FEW,0.00,WeatherDisplay:10.37,2013-04-22 04:06:00,
2013-04-22 05:11:00,46.2,42.0,29.89,SE,145,8.1,8.1,85,0.00,BKN,FEW,0.00,WeatherDisplay:10.37,2013-04-22 04:11:00,
2013-04-22 05:16:00,46.4,42.1,29.89,West,280,6.9,6.9,85,0.00,BKN,FEW,0.00,WeatherDisplay:10.37,2013-04-22 04:16:00,
2013-04-22 05:21:00,46.4,42.1,29.89,ESE,122,5.8,5.8,85,0.00,BKN,FEW,0.00,WeatherDisplay:10.37,2013-04-22 04:21:00,
2013-04-22 05:26:00,46.4,42.4,29.89,ENE,78,5.6,5.6,86,0.00,BKN,FEW,0.00,WeatherDisplay:10.37,2013-04-22 04:26:00,
2013-04-22 05:31:00,46.2,42.3,29.89,West,280,8.1,8.1,86,0.00,BKN,FEW,0.00,WeatherDisplay:10.37,2013-04-22 04:31:00,
2013-04-22 05:36:00,46.2,42.6,29.89,ESE,122,4.6,4.6,87,0.00,BKN,FEW,0.00,WeatherDisplay:10.37,2013-04-22 04:36:00,
2013-04-22 05:41:00,46.2,42.6,29.88,SE,145,8.1,8.1,87,0.00,BKN,FEW,0.00,WeatherDisplay:10.37,2013-04-22 04:41:00,
2013-04-22 05:46:00,45.9,42.5,29.88,SE,145,3.5,4.0,88,0.00,BKN,FEW,0.00,WeatherDisplay:10.37,2013-04-22 04:46:00,
2013-04-22 05:51:00,45.9,42.8,29.88,SE,145,4.6,4.6,89,0.00,BKN,FEW,0.00,WeatherDisplay:10.37,2013-04-22 04:51:00,
2013-04-22 05:56:00,45.7,42.6,29.88,ESE,122,3.5,3.6,89,0.00,BKN,FEW,0.00,WeatherDisplay:10.37,2013-04-22 04:56:00,
2013-04-22 06:01:00,45.7,42.6,29.86,ESE,122,5.8,5.8,89,0.00,-RA,FEW,0.00,WeatherDisplay:10.37,2013-04-22 05:01:00,
2013-04-22 06:06:00,45.7,42.6,29.86,SE,145,8.1,8.1,89,0.00,-RA,FEW,0.00,WeatherDisplay:10.37,2013-04-22 05:06:00,
2013-04-22 06:12:00,45.7,42.6,29.86,SE,145,8.1,8.1,89,0.00,-RA,FEW,0.00,WeatherDisplay:10.37,2013-04-22 05:12:00,
2013-04-22 06:17:00,45.7,42.9,29.86,SE,145,6.9,6.9,90,0.00,-RA,FEW,0.00,WeatherDisplay:10.37,2013-04-22 05:17:00,
2013-04-22 06:22:00,45.7,42.9,29.86,NW,325,6.0,6.0,90,0.00,-RA,FEW,0.00,WeatherDisplay:10.37,2013-04-22 05:22:00,
2013-04-22 06:27:00,45.9,43.1,29.86,West,280,6.9,6.9,90,0.00,-RA,FEW,0.00,WeatherDisplay:10.37,2013-04-22 05:27:00,
2013-04-22 06:32:00,45.7,42.9,29.86,North,10,5.8,5.8,90,0.00,-RA,FEW,0.00,WeatherDisplay:10.37,2013-04-22 05:32:00,
2013-04-22 06:37:00,45.7,42.9,29.86,ESE,122,4.6,4.6,90,0.00,-RA,FEW,0.00,WeatherDisplay:10.37,2013-04-22 05:37:00,
2013-04-22 06:42:00,45.9,43.1,29.86,ESE,122,2.3,2.8,90,0.00,-RA,FEW,0.00,WeatherDisplay:10.37,2013-04-22 05:42:00,
2013-04-22 06:47:00,45.9,43.1,29.86,SE,145,4.6,4.6,90,0.00,-RA,FEW,0.00,WeatherDisplay:10.37,2013-04-22 05:47:00,
2013-04-22 06:52:00,46.2,43.4,29.86,SE,145,5.8,5.8,90,0.00,-RA,FEW,0.00,WeatherDisplay:10.37,2013-04-22 05:52:00,
2013-04-22 06:57:00,46.2,43.4,29.86,ESE,122,3.5,3.5,90,0.00,-RA,FEW,0.00,WeatherDisplay:10.37,2013-04-22 05:57:00,
2013-04-22 07:02:00,46.2,43.4,29.86,SE,145,3.5,3.5,90,0.00,-RA,FEW,0.00,WeatherDisplay:10.37,2013-04-22 06:02:00,
2013-04-22 07:07:00,46.4,43.6,29.86,SE,145,5.8,5.8,90,0.00,-RA,FEW,0.00,WeatherDisplay:10.37,2013-04-22 06:07:00,
2013-04-22 07:12:00,46.4,43.6,29.86,SE,145,5.2,5.2,90,0.00,-RA,FEW,0.00,WeatherDisplay:10.37,2013-04-22 06:12:00,
2013-04-22 07:17:00,46.6,43.8,29.86,SE,145,6.2,6.2,90,0.00,-RA,FEW,0.00,WeatherDisplay:10.37,2013-04-22 06:17:00,
2013-04-22 07:22:00,46.9,44.2,29.86,ESE,122,9.3,9.3,90,0.00,-RA,FEW,0.00,WeatherDisplay:10.37,2013-04-22 06:22:00,
2013-04-22 07:27:00,46.9,44.2,29.86,SE,145,5.8,5.8,90,0.00,-RA,FEW,0.00,WeatherDisplay:10.37,2013-04-22 06:27:00,
2013-04-22 07:32:00,47.1,44.3,29.86,West,280,8.2,8.2,90,0.00,-RA,FEW,0.00,WeatherDisplay:10.37,2013-04-22 06:32:00,
2013-04-22 07:37:00,47.1,44.3,29.86,ENE,78,6.2,6.2,90,0.00,-RA,FEW,0.00,WeatherDisplay:10.37,2013-04-22 06:37:00,
2013-04-22 07:42:00,47.3,44.5,29.85,ESE,122,2.3,4.0,90,0.00,-RA,FEW,0.00,WeatherDisplay:10.37,2013-04-22 06:42:00,
2013-04-22 07:47:00,47.3,44.5,29.85,SE,145,10.4,10.4,90,0.00,-RA,FEW,0.00,WeatherDisplay:10.37,2013-04-22 06:47:00,
2013-04-22 07:52:00,47.5,44.4,29.85,ESE,122,4.6,4.6,89,0.00,-RA,FEW,0.00,WeatherDisplay:10.37,2013-04-22 06:52:00,
2013-04-22 07:57:00,47.7,44.6,29.85,WSW,258,3.5,3.9,89,0.00,-RA,FEW,0.00,WeatherDisplay:10.37,2013-04-22 06:57:00,
2013-04-22 08:02:00,47.8,44.8,29.83,WSW,258,8.1,8.1,89,0.00,BKN,FEW,0.00,WeatherDisplay:10.37,2013-04-22 07:02:00,
2013-04-22 08:07:00,47.8,44.8,29.83,SE,145,5.8,5.8,89,0.00,BKN,FEW,0.00,WeatherDisplay:10.37,2013-04-22 07:07:00,
2013-04-22 08:12:00,48.0,44.9,29.83,SE,145,9.2,9.2,89,0.00,BKN,FEW,0.00,WeatherDisplay:10.37,2013-04-22 07:12:00,
2013-04-22 08:17:00,48.4,45.3,29.83,WSW,258,5.8,5.8,89,0.00,BKN,FEW,0.00,WeatherDisplay:10.37,2013-04-22 07:17:00,
2013-04-22 08:22:00,48.7,45.6,29.83,ESE,122,4.6,4.6,89,0.00,BKN,FEW,0.00,WeatherDisplay:10.37,2013-04-22 07:22:00,
2013-04-22 08:27:00,48.7,45.3,29.83,ESE,122,8.1,8.1,88,0.00,BKN,FEW,0.00,WeatherDisplay:10.37,2013-04-22 07:27:00,
2013-04-22 08:32:00,48.7,45.3,29.83,ESE,122,8.1,8.1,88,0.00,BKN,FEW,0.00,WeatherDisplay:10.37,2013-04-22 07:32:00,
2013-04-22 08:37:00,49.1,45.7,29.83,NW,325,8.1,8.1,88,0.00,BKN,FEW,0.00,WeatherDisplay:10.37,2013-04-22 07:37:00,
2013-04-22 08:42:00,49.3,45.9,29.83,West,280,10.4,10.4,88,0.00,BKN,FEW,0.00,WeatherDisplay:10.37,2013-04-22 07:42:00,
2013-04-22 08:47:00,49.3,45.9,29.83,SE,145,5.8,5.8,88,0.00,BKN,FEW,0.00,WeatherDisplay:10.37,2013-04-22 07:47:00,
2013-04-22 08:52:00,49.8,46.4,29.83,WSW,258,6.9,6.9,88,0.00,BKN,FEW,0.00,WeatherDisplay:10.37,2013-04-22 07:52:00,
2013-04-22 08:57:00,50.2,46.8,29.83,WSW,258,5.8,5.8,88,0.00,BKN,FEW,0.00,WeatherDisplay:10.37,2013-04-22 07:57:00,
2013-04-22 09:02:00,50.2,46.5,29.83,ESE,122,6.9,6.9,87,0.00,BKN,FEW,0.00,WeatherDisplay:10.37,2013-04-22 08:02:00,
2013-04-22 09:07:00,50.5,46.8,29.83,SE,145,6.9,6.9,87,0.00,BKN,FEW,0.00,WeatherDisplay:10.37,2013-04-22 08:07:00,
2013-04-22 09:12:00,50.4,46.6,29.83,SE,145,5.8,5.8,87,0.00,BKN,FEW,0.00,WeatherDisplay:10.37,2013-04-22 08:12:00,
2013-04-22 09:17:00,50.5,46.5,29.83,West,280,4.6,4.6,86,0.00,BKN,FEW,0.00,WeatherDisplay:10.37,2013-04-22 08:17:00,
2013-04-22 09:22:00,50.7,46.7,29.83,ESE,122,8.1,8.1,86,0.00,BKN,FEW,0.00,WeatherDisplay:10.37,2013-04-22 08:22:00,
2013-04-22 09:27:00,50.9,46.9,29.83,ESE,122,3.9,4.5,86,0.00,BKN,FEW,0.00,WeatherDisplay:10.37,2013-04-22 08:27:00,
2013-04-22 09:32:00,51.1,47.0,29.83,ESE,122,5.8,5.8,86,0.00,BKN,FEW,0.00,WeatherDisplay:10.37,2013-04-22 08:32:00,
2013-04-22 09:37:00,51.3,47.2,29.83,WSW,258,8.1,8.1,86,0.00,BKN,FEW,0.00,WeatherDisplay:10.37,2013-04-22 08:37:00,
2013-04-22 09:43:00,51.6,47.6,29.83,WSW,258,10.4,10.4,86,0.00,BKN,FEW,0.00,WeatherDisplay:10.37,2013-04-22 08:43:00,
2013-04-22 09:48:00,51.4,47.4,29.83,ENE,78,6.0,6.0,86,0.00,BKN,FEW,0.00,WeatherDisplay:10.37,2013-04-22 08:48:00,
2013-04-22 09:53:00,51.6,47.6,29.83,SE,145,5.8,5.8,86,0.00,BKN,FEW,0.00,WeatherDisplay:10.37,2013-04-22 08:53:00,
2013-04-22 09:58:00,51.8,47.7,29.83,East,100,1.6,4.5,86,0.00,BKN,FEW,0.00,WeatherDisplay:10.37,2013-04-22 08:58:00,
2013-04-22 10:03:00,52.2,47.8,29.83,SE,145,8.1,8.1,85,0.00,BKN,FEW,0.00,WeatherDisplay:10.37,2013-04-22 09:03:00,
2013-04-22 10:08:00,52.5,48.1,29.83,SE,145,2.3,4.7,85,0.00,BKN,FEW,0.00,WeatherDisplay:10.37,2013-04-22 09:08:00,
2013-04-22 10:13:00,52.7,48.0,29.83,SSW,212,11.5,11.5,84,0.00,BKN,FEW,0.00,WeatherDisplay:10.37,2013-04-22 09:13:00,
2013-04-22 10:18:00,53.1,48.4,29.83,SE,145,10.4,10.4,84,0.00,BKN,FEW,0.00,WeatherDisplay:10.37,2013-04-22 09:18:00,
2013-04-22 10:23:00,53.4,48.7,29.83,SE,145,6.9,6.9,84,0.00,BKN,FEW,0.00,WeatherDisplay:10.37,2013-04-22 09:23:00,
2013-04-22 10:28:00,54.1,49.4,29.83,ESE,122,5.8,6.9,84,0.00,BKN,FEW,0.00,WeatherDisplay:10.37,2013-04-22 09:28:00,
2013-04-22 10:33:00,54.5,49.4,29.83,West,280,6.9,6.9,83,0.00,BKN,FEW,0.00,WeatherDisplay:10.37,2013-04-22 09:33:00,
2013-04-22 10:38:00,54.5,49.1,29.83,ESE,122,3.5,6.0,82,0.00,BKN,FEW,0.00,WeatherDisplay:10.37,2013-04-22 09:38:00,
2013-04-22 10:43:00,55.6,50.2,29.84,WSW,258,9.2,9.2,82,0.00,BKN,FEW,0.00,WeatherDisplay:10.37,2013-04-22 09:43:00,
2013-04-22 10:48:00,55.9,50.2,29.84,SE,145,8.3,8.3,81,0.00,BKN,FEW,0.00,WeatherDisplay:10.37,2013-04-22 09:48:00,
2013-04-22 10:53:00,55.8,49.7,29.84,ESE,122,8.1,8.1,80,0.00,BKN,FEW,0.00,WeatherDisplay:10.37,2013-04-22 09:53:00,
2013-04-22 10:58:00,55.9,49.9,29.84,ESE,122,5.8,6.4,80,0.00,BKN,FEW,0.00,WeatherDisplay:10.37,2013-04-22 09:58:00,
2013-04-22 11:03:00,56.3,50.2,29.84,ESE,122,12.7,12.7,80,0.00,BKN,FEW,0.00,WeatherDisplay:10.37,2013-04-22 10:03:00,
2013-04-22 11:08:00,56.7,50.6,29.84,WSW,258,6.9,7.2,80,0.00,BKN,FEW,0.00,WeatherDisplay:10.37,2013-04-22 10:08:00,
2013-04-22 11:13:00,57.4,50.9,29.84,ESE,122,9.2,9.2,79,0.00,BKN,FEW,0.00,WeatherDisplay:10.37,2013-04-22 10:13:00,
2013-04-22 11:18:00,58.3,51.4,29.84,ESE,122,14.0,14.0,78,0.00,BKN,FEW,0.00,WeatherDisplay:10.37,2013-04-22 10:18:00,
2013-04-22 11:23:00,59.0,51.8,29.85,WSW,258,9.4,9.4,77,0.00,BKN,FEW,0.00,WeatherDisplay:10.37,2013-04-22 10:23:00,
2013-04-22 11:28:00,58.6,51.4,29.85,SE,145,5.8,6.9,77,0.00,BKN,FEW,0.00,WeatherDisplay:10.37,2013-04-22 10:28:00,
2013-04-22 11:33:00,58.1,50.9,29.85,SE,145,11.5,11.5,77,0.00,BKN,FEW,0.00,WeatherDisplay:10.37,2013-04-22 10:33:00,
2013-04-22 11:38:00,58.1,50.9,29.85,WSW,258,8.5,8.6,77,0.00,BKN,FEW,0.00,WeatherDisplay:10.37,2013-04-22 10:38:00,
2013-04-22 11:43:00,58.5,51.3,29.85,SE,145,12.7,12.7,77,0.00,BKN,FEW,0.00,WeatherDisplay:10.37,2013-04-22 10:43:00,
2013-04-22 11:48:00,58.8,51.6,29.85,WSW,258,8.1,9.2,77,0.00,BKN,FEW,0.00,WeatherDisplay:10.37,2013-04-22 10:48:00,
2013-04-22 11:53:00,59.5,52.0,29.85,ESE,122,11.5,11.5,76,0.00,BKN,FEW,0.00,WeatherDisplay:10.37,2013-04-22 10:53:00,
2013-04-22 11:58:00,59.2,51.6,29.85,WSW,258,18.4,18.4,76,0.00,BKN,FEW,0.00,WeatherDisplay:10.37,2013-04-22 10:58:00,
2013-04-22 12:03:00,59.2,51.6,29.87,West,280,11.5,11.5,76,0.00,BKN,FEW,0.00,WeatherDisplay:10.37,2013-04-22 11:03:00,
2013-04-22 12:08:00,59.2,51.6,29.87,West,280,9.2,9.2,76,0.00,BKN,FEW,0.00,WeatherDisplay:10.37,2013-04-22 11:08:00,
2013-04-22 12:13:00,59.4,51.8,29.87,WSW,258,10.4,10.4,76,0.00,BKN,FEW,0.00,WeatherDisplay:10.37,2013-04-22 11:13:00,
2013-04-22 12:18:00,59.5,52.0,29.87,West,280,9.2,9.2,76,0.00,BKN,FEW,0.00,WeatherDisplay:10.37,2013-04-22 11:18:00,
2013-04-22 12:23:00,59.5,52.0,29.84,ESE,122,11.5,11.5,76,0.00,BKN,FEW,0.00,WeatherDisplay:10.37,2013-04-22 11:23:00,
2013-04-22 12:28:00,59.4,51.8,29.84,ESE,122,11.5,11.5,76,0.00,BKN,FEW,0.00,WeatherDisplay:10.37,2013-04-22 11:28:00,
2013-04-22 12:33:00,59.4,51.8,29.84,West,280,10.7,10.7,76,0.00,BKN,FEW,0.00,WeatherDisplay:10.37,2013-04-22 11:33:00,
2013-04-22 12:38:00,58.8,51.6,29.84,ESE,122,12.7,12.7,77,0.00,BKN,FEW,0.00,WeatherDisplay:10.37,2013-04-22 11:38:00,
2013-04-22 12:43:00,58.8,52.0,29.85,WSW,258,14.1,14.1,78,0.00,BKN,FEW,0.00,WeatherDisplay:10.37,2013-04-22 11:43:00,
2013-04-22 12:48:00,58.8,52.0,29.85,ESE,122,9.2,9.2,78,0.00,BKN,FEW,0.00,WeatherDisplay:10.37,2013-04-22 11:48:00,
2013-04-22 12:53:00,59.2,52.3,29.85,WSW,258,21.9,21.9,78,0.00,BKN,FEW,0.00,WeatherDisplay:10.37,2013-04-22 11:53:00,
2013-04-22 12:58:00,59.5,52.7,29.85,WSW,258,11.2,11.2,78,0.00,BKN,FEW,0.00,WeatherDisplay:10.37,2013-04-22 11:58:00,
2013-04-22 13:03:00,59.2,52.3,29.85,ESE,122,15.0,15.0,78,0.00,BKN,FEW,0.00,WeatherDisplay:10.37,2013-04-22 12:03:00,
2013-04-22 13:08:00,58.6,52.1,29.85,West,280,11.5,11.5,79,0.00,BKN,FEW,0.00,WeatherDisplay:10.37,2013-04-22 12:08:00,
2013-04-22 13:13:00,58.3,52.1,29.85,WSW,258,9.2,9.2,80,0.00,BKN,FEW,0.00,WeatherDisplay:10.37,2013-04-22 12:13:00,
2013-04-22 13:18:00,57.9,51.8,29.85,WSW,258,8.1,8.1,80,0.00,BKN,FEW,0.00,WeatherDisplay:10.37,2013-04-22 12:18:00,
2013-04-22 13:23:00,57.9,52.1,29.86,WSW,258,13.8,13.8,81,0.00,BKN,FEW,0.00,WeatherDisplay:10.37,2013-04-22 12:23:00,
2013-04-22 13:28:00,57.6,52.1,29.86,ESE,122,12.7,12.7,82,0.00,BKN,FEW,0.00,WeatherDisplay:10.37,2013-04-22 12:28:00,
2013-04-22 13:33:00,57.6,52.4,29.86,WSW,258,8.1,8.1,83,0.00,BKN,FEW,0.00,WeatherDisplay:10.37,2013-04-22 12:33:00,
2013-04-22 13:38:00,57.6,52.4,29.86,West,280,4.6,5.0,83,0.00,BKN,FEW,0.00,WeatherDisplay:10.37,2013-04-22 12:38:00,
2013-04-22 13:43:00,57.7,52.6,29.85,WSW,258,6.9,6.9,83,0.00,BKN,FEW,0.00,WeatherDisplay:10.37,2013-04-22 12:43:00,
2013-04-22 13:59:00,58.5,53.0,29.85,SE,145,16.7,16.7,82,0.00,BKN,FEW,0.00,WeatherDisplay:10.37,2013-04-22 12:59:00,
2013-04-22 14:04:00,58.5,53.0,29.85,WSW,258,9.2,9.2,82,0.00,-DZ,FEW,0.00,WeatherDisplay:10.37,2013-04-22 13:04:00,
2013-04-22 14:09:00,58.8,53.3,29.85,WSW,258,12.0,12.0,82,0.00,-DZ,FEW,0.00,WeatherDisplay:10.37,2013-04-22 13:09:00,
2013-04-22 14:14:00,59.2,53.0,29.85,NE,55,16.1,16.1,80,0.00,-DZ,FEW,0.00,WeatherDisplay:10.37,2013-04-22 13:14:00,
2013-04-22 14:20:00,59.5,53.4,29.85,NW,325,12.7,12.7,80,0.00,-DZ,FEW,0.00,WeatherDisplay:10.37,2013-04-22 13:20:00,
2013-04-22 14:25:00,59.2,53.0,29.84,WSW,258,10.4,10.4,80,0.00,-DZ,FEW,0.00,WeatherDisplay:10.37,2013-04-22 13:25:00,
2013-04-22 14:30:00,59.2,53.0,29.84,WSW,258,10.4,10.4,80,0.00,-DZ,FEW,0.00,WeatherDisplay:10.37,2013-04-22 13:30:00,
2013-04-22 14:35:00,59.2,53.0,29.84,SE,145,10.4,10.4,80,0.00,-DZ,FEW,0.00,WeatherDisplay:10.37,2013-04-22 13:35:00,
2013-04-22 14:40:00,59.4,53.2,29.84,WSW,258,14.0,14.0,80,0.00,-DZ,FEW,0.00,WeatherDisplay:10.37,2013-04-22 13:40:00,
2013-04-22 14:45:00,59.5,52.7,29.85,WSW,258,12.7,12.7,78,0.00,-DZ,FEW,0.00,WeatherDisplay:10.37,2013-04-22 13:45:00,
2013-04-22 14:50:00,60.4,53.2,29.85,ESE,122,8.1,8.2,77,0.00,-DZ,FEW,0.00,WeatherDisplay:10.37,2013-04-22 13:50:00,
2013-04-22 14:55:00,61.0,53.7,29.85,West,280,11.5,11.5,77,0.00,-DZ,FEW,0.00,WeatherDisplay:10.37,2013-04-22 13:55:00,
2013-04-22 15:00:00,61.2,53.5,29.85,South,190,10.7,10.7,76,0.00,-DZ,FEW,0.00,WeatherDisplay:10.37,2013-04-22 14:00:00,
2013-04-22 15:05:00,61.7,53.0,29.85,WSW,258,18.4,18.4,73,0.00,-DZ,FEW,0.00,WeatherDisplay:10.37,2013-04-22 14:05:00,
2013-04-22 15:10:00,62.1,52.5,29.85,West,280,18.4,18.4,71,0.00,-DZ,FEW,0.00,WeatherDisplay:10.37,2013-04-22 14:10:00,
2013-04-22 15:15:00,62.2,51.9,29.85,WSW,258,20.7,20.7,69,0.00,-DZ,FEW,0.00,WeatherDisplay:10.37,2013-04-22 14:15:00,
2013-04-22 15:20:00,62.8,52.1,29.85,WSW,258,6.9,10.4,68,0.00,-DZ,FEW,0.00,WeatherDisplay:10.37,2013-04-22 14:20:00,
2013-04-22 15:25:00,63.1,52.4,29.86,West,280,9.2,9.2,68,0.00,-DZ,FEW,0.00,WeatherDisplay:10.37,2013-04-22 14:25:00,
2013-04-22 15:30:00,63.5,51.9,29.86,ESE,122,21.9,21.9,66,0.00,-DZ,FEW,0.00,WeatherDisplay:10.37,2013-04-22 14:30:00,
2013-04-22 15:35:00,64.4,52.4,29.86,SE,145,15.0,15.0,65,0.00,-DZ,FEW,0.00,WeatherDisplay:10.37,2013-04-22 14:35:00,
2013-04-22 15:40:00,64.9,52.0,29.86,WSW,258,19.6,19.6,63,0.00,-DZ,FEW,0.00,WeatherDisplay:10.37,2013-04-22 14:40:00,
2013-04-22 15:45:00,64.8,51.4,29.88,West,280,16.5,16.5,62,0.00,-DZ,FEW,0.00,WeatherDisplay:10.37,2013-04-22 14:45:00,
2013-04-22 15:50:00,64.4,51.5,29.88,WSW,258,12.0,12.0,63,0.00,-DZ,FEW,0.00,WeatherDisplay:10.37,2013-04-22 14:50:00,
2013-04-22 15:55:00,63.9,50.6,29.88,WSW,258,10.4,10.4,62,0.00,-DZ,FEW,0.00,WeatherDisplay:10.37,2013-04-22 14:55:00,
2013-04-22 16:00:00,63.5,50.7,29.88,WSW,258,15.0,15.0,63,0.00,-DZ,FEW,0.00,WeatherDisplay:10.37,2013-04-22 15:00:00,
2013-04-22 16:05:00,63.1,49.9,29.89,WSW,258,20.7,20.7,62,0.00,BKN,FEW,0.00,WeatherDisplay:10.37,2013-04-22 15:05:00,
2013-04-22 16:10:00,62.4,50.1,29.89,WSW,258,12.7,12.7,64,0.00,BKN,FEW,0.00,WeatherDisplay:10.37,2013-04-22 15:10:00,
2013-04-22 16:15:00,62.1,49.7,29.89,WSW,258,11.5,11.5,64,0.00,BKN,FEW,0.00,WeatherDisplay:10.37,2013-04-22 15:15:00,
2013-04-22 16:20:00,61.7,49.8,29.89,WSW,258,8.1,8.7,65,0.00,BKN,FEW,0.00,WeatherDisplay:10.37,2013-04-22 15:20:00,
2013-04-22 16:25:00,61.9,50.0,29.89,West,280,19.6,19.6,65,0.00,BKN,FEW,0.00,WeatherDisplay:10.37,2013-04-22 15:25:00,
2013-04-22 16:30:00,62.1,50.2,29.89,WSW,258,19.6,19.6,65,0.00,BKN,FEW,0.00,WeatherDisplay:10.37,2013-04-22 15:30:00,
2013-04-22 16:35:00,62.4,50.1,29.89,WSW,258,13.8,13.8,64,0.00,BKN,FEW,0.00,WeatherDisplay:10.37,2013-04-22 15:35:00,
2013-04-22 16:40:00,63.1,50.8,29.89,SE,145,12.7,12.7,64,0.00,BKN,FEW,0.00,WeatherDisplay:10.37,2013-04-22 15:40:00,
2013-04-22 16:45:00,63.0,50.2,29.88,WSW,258,12.7,12.7,63,0.00,BKN,FEW,0.00,WeatherDisplay:10.37,2013-04-22 15:45:00,
2013-04-22 16:50:00,62.8,50.4,29.88,West,280,11.5,11.5,64,0.00,BKN,FEW,0.00,WeatherDisplay:10.37,2013-04-22 15:50:00,
2013-04-22 16:55:00,62.8,50.4,29.88,WSW,258,16.1,16.1,64,0.00,BKN,FEW,0.00,WeatherDisplay:10.37,2013-04-22 15:55:00,
2013-04-22 17:00:00,62.6,50.2,29.88,WSW,258,18.4,18.4,64,0.00,BKN,FEW,0.00,WeatherDisplay:10.37,2013-04-22 16:00:00,
2013-04-22 17:05:00,63.0,50.6,29.89,West,280,10.4,10.4,64,0.00,BKN,FEW,0.00,WeatherDisplay:10.37,2013-04-22 16:05:00,
2013-04-22 17:10:00,62.6,50.2,29.89,NNE,32,8.1,8.1,64,0.00,BKN,FEW,0.00,WeatherDisplay:10.37,2013-04-22 16:10:00,
2013-04-22 17:15:00,62.6,50.2,29.89,WSW,258,12.7,12.7,64,0.00,BKN,FEW,0.00,WeatherDisplay:10.37,2013-04-22 16:15:00,
2013-04-22 17:20:00,62.2,49.9,29.90,WSW,258,15.6,15.6,64,0.00,BKN,FEW,0.00,WeatherDisplay:10.37,2013-04-22 16:20:00,
2013-04-22 17:25:00,62.1,49.7,29.90,West,280,12.7,12.7,64,0.00,BKN,FEW,0.00,WeatherDisplay:10.37,2013-04-22 16:25:00,
2013-04-22 17:30:00,61.5,49.6,29.90,ESE,122,16.1,16.1,65,0.00,BKN,FEW,0.00,WeatherDisplay:10.37,2013-04-22 16:30:00,
2013-04-22 17:35:00,61.5,49.6,29.90,WSW,258,13.8,13.8,65,0.00,BKN,FEW,0.00,WeatherDisplay:10.37,2013-04-22 16:35:00,
2013-04-22 17:40:00,61.2,49.7,29.90,SE,145,15.0,15.0,66,0.00,BKN,FEW,0.00,WeatherDisplay:10.37,2013-04-22 16:40:00,
2013-04-22 17:45:00,60.8,49.4,29.90,WSW,258,16.1,16.1,66,0.00,BKN,FEW,0.00,WeatherDisplay:10.37,2013-04-22 16:45:00,
2013-04-22 17:50:00,60.6,49.6,29.90,West,280,16.1,16.1,67,0.00,BKN,FEW,0.00,WeatherDisplay:10.37,2013-04-22 16:50:00,
2013-04-22 17:55:00,60.4,49.4,29.90,WNW,302,10.4,10.4,67,0.00,BKN,FEW,0.00,WeatherDisplay:10.37,2013-04-22 16:55:00,
2013-04-22 18:00:00,60.1,49.5,29.91,ESE,122,6.9,8.1,68,0.00,BKN,FEW,0.00,WeatherDisplay:10.37,2013-04-22 17:00:00,
2013-04-22 18:05:00,60.1,49.5,29.91,WSW,258,10.4,10.4,68,0.00,BKN,FEW,0.00,WeatherDisplay:10.37,2013-04-22 17:05:00,
2013-04-22 18:10:00,60.1,49.5,29.91,ESE,122,11.5,11.5,68,0.00,BKN,FEW,0.00,WeatherDisplay:10.37,2013-04-22 17:10:00,
2013-04-22 18:15:00,60.1,49.5,29.91,WSW,258,12.1,12.1,68,0.00,BKN,FEW,0.00,WeatherDisplay:10.37,2013-04-22 17:15:00,
2013-04-22 18:20:00,59.7,49.1,29.89,West,280,16.1,16.1,68,0.00,BKN,FEW,0.00,WeatherDisplay:10.37,2013-04-22 17:20:00,
2013-04-22 18:25:00,59.7,49.1,29.89,West,280,7.2,8.5,68,0.00,BKN,FEW,0.00,WeatherDisplay:10.37,2013-04-22 17:25:00,
2013-04-22 18:30:00,59.9,49.3,29.89,WSW,258,10.4,10.4,68,0.00,BKN,FEW,0.00,WeatherDisplay:10.37,2013-04-22 17:30:00,
2013-04-22 18:35:00,59.5,49.0,29.89,West,280,11.8,11.8,68,0.00,BKN,FEW,0.00,WeatherDisplay:10.37,2013-04-22 17:35:00,
2013-04-22 18:40:00,59.5,49.4,29.89,WSW,258,7.7,7.7,69,0.00,BKN,FEW,0.00,WeatherDisplay:10.37,2013-04-22 17:40:00,
2013-04-22 18:45:00,59.5,49.0,29.89,WSW,258,10.4,10.4,68,0.00,BKN,FEW,0.00,WeatherDisplay:10.37,2013-04-22 17:45:00,
2013-04-22 18:50:00,59.5,49.0,29.89,ESE,122,12.4,12.4,68,0.00,BKN,FEW,0.00,WeatherDisplay:10.37,2013-04-22 17:50:00,
2013-04-22 18:55:00,59.4,48.8,29.89,WSW,258,13.8,13.8,68,0.00,BKN,FEW,0.00,WeatherDisplay:10.37,2013-04-22 17:55:00,
2013-04-22 19:00:00,59.2,48.6,29.89,West,280,10.4,10.4,68,0.00,BKN,FEW,0.00,WeatherDisplay:10.37,2013-04-22 18:00:00,
2013-04-22 19:05:00,59.2,48.6,29.89,WSW,258,11.5,11.5,68,0.00,SCT,FEW,0.00,WeatherDisplay:10.37,2013-04-22 18:05:00,
2013-04-22 19:10:00,58.8,48.3,29.89,ESE,122,12.7,12.7,68,0.00,SCT,FEW,0.00,WeatherDisplay:10.37,2013-04-22 18:10:00,
2013-04-22 19:15:00,58.6,48.5,29.89,WSW,258,13.8,13.8,69,0.00,SCT,FEW,0.00,WeatherDisplay:10.37,2013-04-22 18:15:00,
2013-04-22 19:20:00,58.5,48.3,29.90,WSW,258,9.2,9.2,69,0.00,SCT,FEW,0.00,WeatherDisplay:10.37,2013-04-22 18:20:00,
2013-04-22 19:25:00,58.5,48.3,29.90,WSW,258,12.7,12.7,69,0.00,SCT,FEW,0.00,WeatherDisplay:10.37,2013-04-22 18:25:00,
2013-04-22 19:30:00,58.1,48.0,29.90,West,280,6.9,8.0,69,0.00,SCT,FEW,0.00,WeatherDisplay:10.37,2013-04-22 18:30:00,
2013-04-22 19:35:00,57.9,48.2,29.90,WSW,258,8.6,8.6,70,0.00,SCT,FEW,0.00,WeatherDisplay:10.37,2013-04-22 18:35:00,
2013-04-22 19:40:00,57.6,47.8,29.90,WSW,258,9.2,9.2,70,0.00,SCT,FEW,0.00,WeatherDisplay:10.37,2013-04-22 18:40:00,
2013-04-22 19:46:00,57.2,47.9,29.90,West,280,18.4,18.4,71,0.00,SCT,FEW,0.00,WeatherDisplay:10.37,2013-04-22 18:46:00,
2013-04-22 19:50:00,57.0,47.7,29.90,ESE,122,11.5,11.5,71,0.00,SCT,FEW,0.00,WeatherDisplay:10.37,2013-04-22 18:50:00,
2013-04-22 19:56:00,56.5,47.6,29.90,WSW,258,19.7,19.7,72,0.00,SCT,FEW,0.00,WeatherDisplay:10.37,2013-04-22 18:56:00,
2013-04-22 20:01:00,56.3,47.4,29.91,WSW,258,15.5,15.5,72,0.00,FEW,,0.00,WeatherDisplay:10.37,2013-04-22 19:01:00,
2013-04-22 20:06:00,55.9,47.4,29.91,WSW,258,15.0,15.0,73,0.00,FEW,,0.00,WeatherDisplay:10.37,2013-04-22 19:06:00,
2013-04-22 20:11:00,55.8,47.2,29.91,WSW,258,10.4,10.4,73,0.00,FEW,,0.00,WeatherDisplay:10.37,2013-04-22 19:11:00,
2013-04-22 20:16:00,55.6,47.1,29.91,WSW,258,12.7,12.7,73,0.00,FEW,,0.00,WeatherDisplay:10.37,2013-04-22 19:16:00,
2013-04-22 20:21:00,55.0,46.9,29.90,ESE,122,9.2,9.2,74,0.00,FEW,,0.00,WeatherDisplay:10.37,2013-04-22 19:21:00,
2013-04-22 20:26:00,55.0,46.9,29.90,WSW,258,9.2,9.2,74,0.00,FEW,,0.00,WeatherDisplay:10.37,2013-04-22 19:26:00,
2013-04-22 20:31:00,54.7,46.9,29.90,West,280,11.5,11.5,75,0.00,FEW,,0.00,WeatherDisplay:10.37,2013-04-22 19:31:00,
2013-04-22 20:36:00,54.5,46.7,29.90,ESE,122,7.7,8.8,75,0.00,FEW,,0.00,WeatherDisplay:10.37,2013-04-22 19:36:00,
2013-04-22 20:41:00,54.3,46.6,29.91,WSW,258,17.3,17.3,75,0.00,FEW,,0.00,WeatherDisplay:10.37,2013-04-22 19:41:00,
2013-04-22 20:46:00,54.1,46.7,29.91,WSW,258,9.2,9.2,76,0.00,FEW,,0.00,WeatherDisplay:10.37,2013-04-22 19:46:00,
2013-04-22 20:51:00,54.1,46.7,29.91,ESE,122,10.4,10.4,76,0.00,FEW,,0.00,WeatherDisplay:10.37,2013-04-22 19:51:00,
2013-04-22 20:56:00,53.6,46.6,29.91,WSW,258,8.1,8.3,77,0.00,FEW,,0.00,WeatherDisplay:10.37,2013-04-22 19:56:00,
2013-04-22 21:01:00,53.6,46.6,29.93,WSW,258,15.0,15.0,77,0.00,FEW,,0.00,WeatherDisplay:10.37,2013-04-22 20:01:00,
2013-04-22 21:06:00,53.4,46.4,29.93,WSW,258,13.8,13.8,77,0.00,FEW,,0.00,WeatherDisplay:10.37,2013-04-22 20:06:00,
2013-04-22 21:11:00,53.2,46.2,29.93,WSW,258,8.1,8.1,77,0.00,FEW,,0.00,WeatherDisplay:10.37,2013-04-22 20:11:00,
2013-04-22 21:16:00,52.9,46.2,29.93,WSW,258,12.7,12.7,78,0.00,FEW,,0.00,WeatherDisplay:10.37,2013-04-22 20:16:00,
2013-04-22 21:21:00,52.9,46.2,29.93,WSW,258,9.2,9.2,78,0.00,FEW,,0.00,WeatherDisplay:10.37,2013-04-22 20:21:00,
2013-04-22 21:26:00,52.7,46.0,29.93,West,280,14.6,14.6,78,0.00,FEW,,0.00,WeatherDisplay:10.37,2013-04-22 20:26:00,
2013-04-22 21:31:00,52.3,46.0,29.93,WSW,258,13.8,13.8,79,0.00,FEW,,0.00,WeatherDisplay:10.37,2013-04-22 20:31:00,
2013-04-22 21:36:00,52.3,46.0,29.93,WSW,258,9.2,9.3,79,0.00,FEW,,0.00,WeatherDisplay:10.37,2013-04-22 20:36:00,
2013-04-22 21:41:00,52.2,45.8,29.93,WSW,258,19.6,19.6,79,0.00,FEW,,0.00,WeatherDisplay:10.37,2013-04-22 20:41:00,
2013-04-22 21:46:00,52.2,46.2,29.93,WSW,258,8.9,9.1,80,0.00,FEW,,0.00,WeatherDisplay:10.37,2013-04-22 20:46:00,
2013-04-22 21:51:00,52.2,46.2,29.93,WSW,258,18.4,18.4,80,0.00,FEW,,0.00,WeatherDisplay:10.37,2013-04-22 20:51:00,
2013-04-22 21:56:00,52.0,46.0,29.93,WSW,258,12.7,12.7,80,0.00,FEW,,0.00,WeatherDisplay:10.37,2013-04-22 20:56:00,
2013-04-22 22:01:00,52.0,46.0,29.94,WSW,258,11.5,11.5,80,0.00,BKN,FEW,0.00,WeatherDisplay:10.37,2013-04-22 21:01:00,
2013-04-22 22:06:00,52.0,46.0,29.94,WSW,258,13.9,13.9,80,0.00,BKN,FEW,0.00,WeatherDisplay:10.37,2013-04-22 21:06:00,
2013-04-22 22:11:00,51.8,45.8,29.94,SE,145,12.7,12.7,80,0.00,BKN,FEW,0.00,WeatherDisplay:10.37,2013-04-22 21:11:00,
2013-04-22 22:16:00,51.6,46.0,29.94,WSW,258,12.0,12.0,81,0.00,BKN,FEW,0.00,WeatherDisplay:10.37,2013-04-22 21:16:00,
2013-04-22 22:21:00,51.6,46.0,29.95,West,280,11.5,11.5,81,0.00,BKN,FEW,0.00,WeatherDisplay:10.37,2013-04-22 21:21:00,
2013-04-22 22:26:00,51.4,45.8,29.95,WSW,258,12.1,12.1,81,0.00,BKN,FEW,0.00,WeatherDisplay:10.37,2013-04-22 21:26:00,
2013-04-22 22:31:00,51.4,45.8,29.95,ESE,122,8.1,8.1,81,0.00,BKN,FEW,0.00,WeatherDisplay:10.37,2013-04-22 21:31:00,
2013-04-22 22:36:00,51.4,45.8,29.95,WSW,258,5.8,6.0,81,0.00,BKN,FEW,0.00,WeatherDisplay:10.37,2013-04-22 21:36:00,
2013-04-22 22:41:00,51.4,45.8,29.96,WSW,258,6.9,6.9,81,0.00,BKN,FEW,0.00,WeatherDisplay:10.37,2013-04-22 21:41:00,
2013-04-22 22:46:00,51.4,45.8,29.96,WSW,258,10.4,10.4,81,0.00,BKN,FEW,0.00,WeatherDisplay:10.37,2013-04-22 21:46:00,
2013-04-22 22:51:00,51.4,45.8,29.96,ESE,122,10.4,10.4,81,0.00,BKN,FEW,0.00,WeatherDisplay:10.37,2013-04-22 21:51:00,
2013-04-22 22:56:00,51.3,45.6,29.96,ESE,122,9.2,9.2,81,0.00,BKN,FEW,0.00,WeatherDisplay:10.37,2013-04-22 21:56:00,
2013-04-22 23:01:00,50.9,45.6,29.94,WSW,258,13.8,13.8,82,0.00,BKN,FEW,0.00,WeatherDisplay:10.37,2013-04-22 22:01:00,
2013-04-22 23:06:00,50.5,45.2,29.94,WSW,258,8.1,8.1,82,0.00,BKN,FEW,0.00,WeatherDisplay:10.37,2013-04-22 22:06:00,
2013-04-22 23:11:00,50.5,45.2,29.94,WSW,258,9.2,9.2,82,0.00,BKN,FEW,0.00,WeatherDisplay:10.37,2013-04-22 22:11:00,
2013-04-22 23:16:00,50.0,44.7,29.94,WSW,258,4.6,5.6,82,0.00,BKN,FEW,0.00,WeatherDisplay:10.37,2013-04-22 22:16:00,
2013-04-22 23:21:00,50.0,45.0,29.95,WSW,258,8.1,8.1,83,0.00,BKN,FEW,0.00,WeatherDisplay:10.37,2013-04-22 22:21:00,
2013-04-22 23:26:00,49.8,45.2,29.95,WSW,258,9.2,9.2,84,0.00,BKN,FEW,0.00,WeatherDisplay:10.37,2013-04-22 22:26:00,
2013-04-22 23:31:00,49.6,45.0,29.95,WSW,258,12.7,12.7,84,0.00,BKN,FEW,0.00,WeatherDisplay:10.37,2013-04-22 22:31:00,
2013-04-22 23:36:00,49.6,45.0,29.95,WSW,258,10.0,10.0,84,0.00,BKN,FEW,0.00,WeatherDisplay:10.37,2013-04-22 22:36:00,
2013-04-22 23:41:00,49.6,45.0,29.95,WSW,258,12.7,12.7,84,0.00,BKN,FEW,0.00,WeatherDisplay:10.37,2013-04-22 22:41:00,
2013-04-22 23:46:00,49.5,44.8,29.95,WSW,258,6.5,7.0,84,0.00,BKN,FEW,0.00,WeatherDisplay:10.37,2013-04-22 22:46:00,
2013-04-22 23:51:00,49.3,45.0,29.95,WSW,258,10.4,10.4,85,0.00,BKN,FEW,0.00,WeatherDisplay:10.37,2013-04-22 22:51:00,
2013-04-22 23:56:00,49.3,45.0,29.95,WSW,258,9.2,9.2,85,0.00,BKN,FEW,0.00,WeatherDisplay:10.37,2013-04-22 22:56:00,